Location: Barruelo
(41.2448°N, 3.8231°W)
Time: 23:37:21
(UTC+00:00)

Cosmos 2227 Rocket - Visible Passes

Search period start: 14 March 2026 00:00
Search period end: 24 March 2026 00:00
Orbit: 836 x 845 km, 71.0° (Epoch: 14 March)

Date Brightness Start Highest point End Pass type
(mag) Time Alt. Az. Time Alt. Az. Time Alt. Az.
14 Mar 4.7 22:05:36 10° N 22:06:34 15° N 22:06:34 15° N visible
15 Mar 4.5 21:50:17 10° N 21:51:41 16° N 21:51:41 16° N visible
16 Mar 4.3 21:34:58 10° N 21:36:50 18° N 21:36:50 18° N visible
17 Mar 4.1 21:19:41 10° N 21:21:59 20° NNE 21:21:59 20° NNE visible
17 Mar 5.0 23:03:21 10° NW 23:03:47 12° NW 23:03:47 12° NW visible
18 Mar 3.9 21:04:23 10° N 21:07:11 22° NNE 21:07:11 22° NNE visible
18 Mar 4.8 22:47:57 10° NW 22:48:59 15° NW 22:48:59 15° NW visible
19 Mar 3.7 20:49:05 10° N 20:52:24 23° NNE 20:52:24 23° NNE visible
19 Mar 4.5 22:32:34 10° NW 22:34:12 19° NW 22:34:12 19° NW visible
20 Mar 3.6 20:33:47 10° N 20:37:39 24° NE 20:37:39 24° NE visible
20 Mar 4.2 22:17:12 10° NNW 22:19:27 24° NW 22:19:27 24° NW visible
21 Mar 3.5 20:18:30 10° N 20:22:56 23° NE 20:22:56 23° NE visible
21 Mar 3.8 22:01:49 10° NNW 22:04:44 30° NW 22:04:44 30° NW visible
22 Mar 3.5 20:03:13 10° N 20:07:34 22° NE 20:08:15 21° ENE visible
22 Mar 3.4 21:46:26 10° NNW 21:50:04 39° NW 21:50:04 39° NW visible
23 Mar 3.6 19:47:57 10° N 19:52:11 21° NE 19:53:38 19° ENE visible
23 Mar 2.9 21:31:04 10° NNW 21:35:26 50° WNW 21:35:26 50° WNW visible
